Time,TemperatureF,DewpointF,PressureIn,WindDirection,WindDirectionDegrees,WindSpeedMPH,WindSpeedGustMPH,Humidity,HourlyPrecipIn,Conditions,Clouds,dailyrainin,SoftwareType,DateUTC
2013-04-06 07:12:00,37.3,29.1,30.04,SE,125,13.0,13.0,72,0.00,,,0.00,Wunderground v.1.15,2013-04-06 12:12:00,
2013-04-06 07:15:00,37.4,29.2,30.04,ESE,123,14.0,16.0,72,0.00,,,0.00,Wunderground v.1.15,2013-04-06 12:15:00,
2013-04-06 07:17:00,37.5,29.3,30.04,ESE,122,14.0,16.0,72,0.00,,,0.00,Wunderground v.1.15,2013-04-06 12:17:00,
2013-04-06 07:22:00,37.8,29.6,30.04,SE,136,13.0,13.0,72,0.00,,,0.00,Wunderground v.1.15,2013-04-06 12:22:00,
2013-04-06 07:29:00,38.3,29.7,30.05,SE,126,12.0,15.0,71,0.00,,,0.00,Wunderground v.1.15,2013-04-06 12:29:00,
2013-04-06 07:34:00,38.8,29.8,30.05,SE,130,12.0,15.0,70,0.00,,,0.00,Wunderground v.1.15,2013-04-06 12:34:00,
2013-04-06 07:39:00,39.3,30.0,30.04,SE,136,13.0,15.0,69,0.00,,,0.00,Wunderground v.1.15,2013-04-06 12:39:00,
2013-04-06 07:45:00,40.1,30.0,30.04,SE,129,13.0,13.0,67,0.00,,,0.00,Wunderground v.1.15,2013-04-06 12:45:00,
2013-04-06 07:52:00,40.5,30.4,30.04,SE,130,14.0,15.0,67,0.00,,,0.00,Wunderground v.1.15,2013-04-06 12:52:00,
2013-04-06 07:57:00,41.0,30.5,30.03,ESE,123,14.0,18.0,66,0.00,,,0.00,Wunderground v.1.15,2013-04-06 12:57:00,
2013-04-06 08:04:00,41.5,30.6,30.03,SE,132,14.0,18.0,65,0.00,,,0.00,Wunderground v.1.15,2013-04-06 13:04:00,
2013-04-06 08:09:00,42.1,30.8,30.03,SE,146,15.0,18.0,64,0.00,,,0.00,Wunderground v.1.15,2013-04-06 13:09:00,
2013-04-06 08:14:00,42.9,31.6,30.03,SSE,151,14.0,15.0,64,0.00,,,0.00,Wunderground v.1.15,2013-04-06 13:14:00,
2013-04-06 08:20:00,43.6,31.4,30.03,SE,138,15.0,15.0,62,0.00,,,0.00,Wunderground v.1.15,2013-04-06 13:20:00,
2013-04-06 08:25:00,44.0,31.4,30.03,SE,140,15.0,19.0,61,0.00,,,0.00,Wunderground v.1.15,2013-04-06 13:25:00,
2013-04-06 08:31:00,44.8,31.8,30.03,SSE,160,15.0,17.0,60,0.00,,,0.00,Wunderground v.1.15,2013-04-06 13:31:00,
2013-04-06 08:37:00,45.6,31.7,30.03,SSE,150,15.0,18.0,58,0.00,,,0.00,Wunderground v.1.15,2013-04-06 13:37:00,
2013-04-06 08:42:00,46.3,31.9,30.02,SSE,156,16.0,22.0,57,0.00,,,0.00,Wunderground v.1.15,2013-04-06 13:42:00,
2013-04-06 08:49:00,46.9,32.0,30.02,SSE,148,18.0,22.0,56,0.00,,,0.00,Wunderground v.1.15,2013-04-06 13:49:00,
2013-04-06 08:54:00,47.4,32.0,30.01,SSE,148,18.0,21.0,55,0.00,,,0.00,Wunderground v.1.15,2013-04-06 13:54:00,
2013-04-06 09:00:00,47.9,32.5,30.01,SSE,159,17.0,17.0,55,0.00,,,0.00,Wunderground v.1.15,2013-04-06 14:00:00,
2013-04-06 09:05:00,48.1,32.2,30.00,SSE,155,18.0,25.0,54,0.00,,,0.00,Wunderground v.1.15,2013-04-06 14:05:00,
2013-04-06 09:11:00,48.6,32.7,30.00,SE,144,19.0,19.0,54,0.00,,,0.00,Wunderground v.1.15,2013-04-06 14:11:00,
2013-04-06 09:16:00,49.2,32.3,30.00,South,169,19.0,21.0,52,0.00,,,0.00,Wunderground v.1.15,2013-04-06 14:16:00,
2013-04-06 09:22:00,50.0,33.1,30.00,SE,141,19.0,22.0,52,0.00,,,0.00,Wunderground v.1.15,2013-04-06 14:22:00,
2013-04-06 09:29:00,50.8,32.8,29.99,South,176,19.0,22.0,50,0.00,,,0.00,Wunderground v.1.15,2013-04-06 14:29:00,
2013-04-06 09:34:00,51.0,33.0,29.99,South,171,19.0,22.0,50,0.00,,,0.00,Wunderground v.1.15,2013-04-06 14:34:00,
2013-04-06 09:39:00,51.1,33.1,29.98,SSE,165,19.0,24.0,50,0.00,,,0.00,Wunderground v.1.15,2013-04-06 14:39:00,
2013-04-06 09:45:00,52.0,32.9,29.98,SSE,159,18.0,25.0,48,0.00,,,0.00,Wunderground v.1.15,2013-04-06 14:45:00,
2013-04-06 09:51:00,52.7,34.1,29.98,South,190,18.0,19.0,49,0.00,,,0.00,Wunderground v.1.15,2013-04-06 14:51:00,
2013-04-06 09:56:00,53.6,33.8,29.98,SSE,159,18.0,20.0,47,0.00,,,0.00,Wunderground v.1.15,2013-04-06 14:56:00,
2013-04-06 10:02:00,54.2,33.9,29.98,South,178,19.0,23.0,46,0.00,,,0.00,Wunderground v.1.15,2013-04-06 15:02:00,
2013-04-06 10:07:00,55.1,34.7,29.97,South,175,19.0,25.0,46,0.00,,,0.00,Wunderground v.1.15,2013-04-06 15:07:00,
2013-04-06 10:14:00,56.3,34.6,29.96,South,169,20.0,21.0,44,0.00,,,0.00,Wunderground v.1.15,2013-04-06 15:14:00,
2013-04-06 10:19:00,57.5,34.6,29.96,South,169,20.0,26.0,42,0.00,,,0.00,Wunderground v.1.15,2013-04-06 15:19:00,
2013-04-06 10:24:00,57.7,34.7,29.96,SSE,163,20.0,26.0,42,0.00,,,0.00,Wunderground v.1.15,2013-04-06 15:24:00,
2013-04-06 10:29:00,58.2,34.6,29.95,South,190,21.0,26.0,41,0.00,,,0.00,Wunderground v.1.15,2013-04-06 15:29:00,
2013-04-06 10:35:00,58.6,35.0,29.95,SSE,165,19.0,26.0,41,0.00,,,0.00,Wunderground v.1.15,2013-04-06 15:35:00,
2013-04-06 10:41:00,58.9,35.8,29.95,SSW,192,18.0,22.0,42,0.00,,,0.00,Wunderground v.1.15,2013-04-06 15:41:00,
2013-04-06 10:46:00,59.0,35.3,29.94,South,175,17.0,22.0,41,0.00,,,0.00,Wunderground v.1.15,2013-04-06 15:46:00,
2013-04-06 10:52:00,58.8,35.1,29.94,South,177,16.0,18.0,41,0.00,,,0.00,Wunderground v.1.15,2013-04-06 15:52:00,
2013-04-06 10:57:00,59.0,35.3,29.94,South,189,18.0,25.0,41,0.00,,,0.00,Wunderground v.1.15,2013-04-06 15:57:00,
2013-04-06 11:04:00,59.3,35.6,29.93,SSE,165,17.0,19.0,41,0.00,,,0.00,Wunderground v.1.15,2013-04-06 16:04:00,
2013-04-06 11:10:00,59.8,36.0,29.93,South,178,16.0,22.0,41,0.00,,,0.00,Wunderground v.1.15,2013-04-06 16:10:00,
2013-04-06 11:16:00,60.1,35.7,29.92,South,169,18.0,26.0,40,0.00,,,0.00,Wunderground v.1.15,2013-04-06 16:16:00,
2013-04-06 11:22:00,59.9,36.1,29.92,SSE,158,18.0,24.0,41,0.00,,,0.00,Wunderground v.1.15,2013-04-06 16:22:00,
2013-04-06 11:29:00,59.8,36.0,29.92,SSE,157,16.0,24.0,41,0.00,,,0.00,Wunderground v.1.15,2013-04-06 16:29:00,
2013-04-06 11:34:00,59.4,36.3,29.92,SSE,159,15.0,22.0,42,0.00,,,0.00,Wunderground v.1.15,2013-04-06 16:34:00,
2013-04-06 11:40:00,59.5,36.4,29.91,SSE,163,14.0,22.0,42,0.00,,,0.00,Wunderground v.1.15,2013-04-06 16:40:00,
2013-04-06 11:45:00,59.7,36.6,29.91,SSE,165,15.0,22.0,42,0.00,,,0.00,Wunderground v.1.15,2013-04-06 16:45:00,
2013-04-06 11:50:00,60.2,37.0,29.91,SSW,203,15.0,15.0,42,0.00,,,0.00,Wunderground v.1.15,2013-04-06 16:50:00,
2013-04-06 11:56:00,60.8,36.9,29.91,South,186,15.0,17.0,41,0.00,,,0.00,Wunderground v.1.15,2013-04-06 16:56:00,
2013-04-06 12:02:00,61.4,37.5,29.91,South,183,13.0,14.0,41,0.00,,,0.00,Wunderground v.1.15,2013-04-06 17:02:00,
2013-04-06 12:07:00,62.0,37.4,29.90,South,171,12.0,19.0,40,0.00,,,0.00,Wunderground v.1.15,2013-04-06 17:07:00,
2013-04-06 12:12:00,62.8,37.5,29.90,SSE,159,12.0,18.0,39,0.00,,,0.00,Wunderground v.1.15,2013-04-06 17:12:00,
2013-04-06 12:17:00,63.6,38.2,29.89,SSE,152,13.0,18.0,39,0.00,,,0.00,Wunderground v.1.15,2013-04-06 17:17:00,
2013-04-06 12:24:00,64.1,38.0,29.88,SSW,207,14.0,17.0,38,0.00,,,0.00,Wunderground v.1.15,2013-04-06 17:24:00,
2013-04-06 12:29:00,64.4,38.2,29.88,SSW,196,13.0,17.0,38,0.00,,,0.00,Wunderground v.1.15,2013-04-06 17:29:00,
2013-04-06 12:34:00,64.5,38.3,29.87,South,180,14.0,14.0,38,0.00,,,0.00,Wunderground v.1.15,2013-04-06 17:34:00,
2013-04-06 12:39:00,65.1,38.8,29.87,South,188,14.0,19.0,38,0.00,,,0.00,Wunderground v.1.15,2013-04-06 17:39:00,
2013-04-06 12:45:00,65.1,38.8,29.86,South,182,13.0,25.0,38,0.00,,,0.00,Wunderground v.1.15,2013-04-06 17:45:00,
2013-04-06 12:50:00,65.4,38.4,29.86,SSW,194,15.0,15.0,37,0.00,,,0.00,Wunderground v.1.15,2013-04-06 17:50:00,
2013-04-06 12:55:00,65.4,38.4,29.85,SSW,192,15.0,17.0,37,0.00,,,0.00,Wunderground v.1.15,2013-04-06 17:55:00,
2013-04-06 13:00:00,65.1,38.2,29.85,South,190,14.0,17.0,37,0.00,,,0.00,Wunderground v.1.15,2013-04-06 18:00:00,
2013-04-06 13:06:00,65.0,38.8,29.84,SSW,206,15.0,21.0,38,0.00,,,0.00,Wunderground v.1.15,2013-04-06 18:06:00,
2013-04-06 13:11:00,65.4,38.4,29.83,SSW,202,15.0,15.0,37,0.00,,,0.00,Wunderground v.1.15,2013-04-06 18:11:00,
2013-04-06 13:17:00,65.7,38.7,29.83,SSW,193,15.0,20.0,37,0.00,,,0.00,Wunderground v.1.15,2013-04-06 18:17:00,
2013-04-06 13:22:00,66.0,39.0,29.82,SSE,159,15.0,20.0,37,0.00,,,0.00,Wunderground v.1.15,2013-04-06 18:22:00,
2013-04-06 13:27:00,66.2,39.1,29.82,South,186,17.0,24.0,37,0.00,,,0.00,Wunderground v.1.15,2013-04-06 18:27:00,
2013-04-06 13:34:00,67.6,40.4,29.81,SSE,162,14.0,21.0,37,0.00,,,0.00,Wunderground v.1.15,2013-04-06 18:34:00,
2013-04-06 13:39:00,68.3,39.6,29.80,SSW,203,13.0,21.0,35,0.00,,,0.00,Wunderground v.1.15,2013-04-06 18:39:00,
2013-04-06 13:45:00,68.5,39.0,29.80,SSW,201,15.0,22.0,34,0.00,,,0.00,Wunderground v.1.15,2013-04-06 18:45:00,
2013-04-06 13:51:00,68.0,38.6,29.79,SSW,192,17.0,17.0,34,0.00,,,0.00,Wunderground v.1.15,2013-04-06 18:51:00,
2013-04-06 13:56:00,68.2,38.7,29.78,SSE,155,17.0,17.0,34,0.00,,,0.00,Wunderground v.1.15,2013-04-06 18:56:00,
2013-04-06 14:02:00,68.6,38.3,29.78,SSE,157,16.0,17.0,33,0.00,,,0.00,Wunderground v.1.15,2013-04-06 19:02:00,
2013-04-06 14:09:00,68.9,38.6,29.76,SSW,199,17.0,24.0,33,0.00,,,0.00,Wunderground v.1.15,2013-04-06 19:09:00,
2013-04-06 14:14:00,69.2,38.9,29.76,South,178,18.0,18.0,33,0.00,,,0.00,Wunderground v.1.15,2013-04-06 19:14:00,
2013-04-06 14:20:00,69.4,39.0,29.76,South,187,16.0,21.0,33,0.00,,,0.00,Wunderground v.1.15,2013-04-06 19:20:00,
2013-04-06 14:25:00,69.3,38.2,29.76,South,178,16.0,18.0,32,0.00,,,0.00,Wunderground v.1.15,2013-04-06 19:25:00,
2013-04-06 14:31:00,69.5,38.3,29.75,South,177,15.0,16.0,32,0.00,,,0.00,Wunderground v.1.15,2013-04-06 19:31:00,
2013-04-06 14:37:00,69.3,38.2,29.74,SSE,165,15.0,17.0,32,0.00,,,0.00,Wunderground v.1.15,2013-04-06 19:37:00,
2013-04-06 14:42:00,69.0,38.7,29.74,SSE,167,15.0,18.0,33,0.00,,,0.00,Wunderground v.1.15,2013-04-06 19:42:00,
2013-04-06 14:49:00,69.2,38.9,29.73,SSW,194,16.0,19.0,33,0.00,,,0.00,Wunderground v.1.15,2013-04-06 19:49:00,
2013-04-06 14:54:00,69.3,38.9,29.73,South,169,15.0,17.0,33,0.00,,,0.00,Wunderground v.1.15,2013-04-06 19:54:00,
2013-04-06 14:59:00,69.0,38.7,29.73,SSW,211,16.0,19.0,33,0.00,,,0.00,Wunderground v.1.15,2013-04-06 19:59:00,
2013-04-06 15:04:00,69.2,39.6,29.73,SSW,198,15.0,16.0,34,0.00,,,0.00,Wunderground v.1.15,2013-04-06 20:04:00,
2013-04-06 15:09:00,70.5,40.8,29.72,SSW,195,13.0,17.0,34,0.00,,,0.00,Wunderground v.1.15,2013-04-06 20:09:00,
2013-04-06 15:15:00,70.4,39.1,29.72,South,189,15.0,22.0,32,0.00,,,0.00,Wunderground v.1.15,2013-04-06 20:15:00,
2013-04-06 15:21:00,70.6,39.3,29.70,SSW,198,15.0,16.0,32,0.00,,,0.00,Wunderground v.1.15,2013-04-06 20:21:00,
2013-04-06 15:27:00,70.8,39.5,29.70,SSW,194,15.0,21.0,32,0.00,,,0.00,Wunderground v.1.15,2013-04-06 20:27:00,
2013-04-06 15:34:00,70.7,40.2,29.71,SW,215,16.0,22.0,33,0.00,,,0.00,Wunderground v.1.15,2013-04-06 20:34:00,
2013-04-06 15:39:00,70.9,40.3,29.71,SSW,207,15.0,28.0,33,0.00,,,0.00,Wunderground v.1.15,2013-04-06 20:39:00,
2013-04-06 15:44:00,71.2,39.8,29.70,South,184,14.0,17.0,32,0.00,,,0.00,Wunderground v.1.15,2013-04-06 20:44:00,
2013-04-06 15:50:00,70.6,40.1,29.70,SSE,163,14.0,20.0,33,0.00,,,0.00,Wunderground v.1.15,2013-04-06 20:50:00,
2013-04-06 15:56:00,70.3,39.8,29.69,SSW,200,15.0,20.0,33,0.00,,,0.00,Wunderground v.1.15,2013-04-06 20:56:00,
2013-04-06 16:02:00,69.8,40.2,29.69,South,180,15.0,15.0,34,0.00,,,0.00,Wunderground v.1.15,2013-04-06 21:02:00,
2013-04-06 16:09:00,69.8,40.9,29.69,SSW,203,14.0,20.0,35,0.00,,,0.00,Wunderground v.1.15,2013-04-06 21:09:00,
2013-04-06 16:14:00,69.9,40.2,29.69,SSW,192,14.0,17.0,34,0.00,,,0.00,Wunderground v.1.15,2013-04-06 21:14:00,
2013-04-06 16:19:00,69.9,40.2,29.69,SSW,201,14.0,18.0,34,0.00,,,0.00,Wunderground v.1.15,2013-04-06 21:19:00,
2013-04-06 16:24:00,69.8,40.9,29.69,SSW,202,13.0,19.0,35,0.00,,,0.00,Wunderground v.1.15,2013-04-06 21:24:00,
2013-04-06 16:30:00,69.9,41.0,29.69,South,191,13.0,18.0,35,0.00,,,0.00,Wunderground v.1.15,2013-04-06 21:30:00,